Location: York
(31.8935°S, 116.7682°E)
Time: 09:17:46
(UTC+08:00)

Tiros 1 despin weight - All Passes

Search period start: 03 October 2022 00:00
Search period end: 13 October 2022 00:00
Orbit: 590 x 638 km, 48.2° (Epoch: 02 October)

Date Brightness Start Highest point End Pass type
(mag) Time Alt. Az. Time Alt. Az. Time Alt. Az.
03 Oct - 02:55:56 10° NW 03:00:29 58° NE 03:05:02 10° ESE visible
03 Oct - 04:38:18 10° W 04:42:12 26° SSW 04:46:04 10° SSE visible
03 Oct - 06:23:49 10° SSW 06:24:58 11° S 06:26:05 10° S daylight
03 Oct - 08:06:26 10° S 08:08:09 12° SSE 08:09:52 10° SE daylight
03 Oct - 09:46:38 10° SW 09:50:44 33° SSE 09:54:46 10° E daylight
03 Oct - 11:28:06 10° WSW 11:32:11 36° NW 11:36:13 10° NNE daylight
04 Oct - 01:31:49 10° NNE 01:34:44 16° NE 01:37:39 10° E night (unlit)
04 Oct - 03:11:12 10° WNW 03:15:49 69° SW 03:20:26 10° SE visible
04 Oct - 04:54:52 10° WSW 04:57:57 17° SSW 05:01:01 10° SSE visible
04 Oct - 08:21:14 10° SSW 08:24:05 16° SSE 08:26:53 10° ESE daylight
04 Oct - 10:01:47 10° SW 10:06:14 64° SE 10:10:37 10° ENE daylight
04 Oct - 11:44:30 10° W 11:47:18 17° NW 11:50:05 10° NNW daylight
05 Oct - 01:45:38 10° NNW 01:49:52 35° NE 01:54:05 10° ESE visible
05 Oct - 03:27:00 10° W 03:31:18 37° SSW 03:35:36 10° SE visible
05 Oct - 05:11:49 10° SW 05:13:50 13° SSW 05:15:51 10° SSE visible
05 Oct - 06:56:08 10° S 06:57:02 10° S 06:57:57 10° SSE daylight
05 Oct - 08:36:08 10° SSW 08:39:51 24° SSE 08:43:30 10° E daylight
05 Oct - 10:17:10 10° WSW 10:21:35 61° NW 10:25:56 10° NE daylight
06 Oct - 02:00:27 10° NW 02:05:06 75° NE 02:09:45 10° SE visible
06 Oct - 03:43:16 10° WSW 03:46:57 23° SSW 03:50:36 10° SSE visible
06 Oct - 05:29:04 10° SSW 05:29:50 10° S 05:30:35 10° S daylight
06 Oct - 07:10:49 10° SSW 07:13:01 13° SSE 07:15:11 10° SE daylight
06 Oct - 08:51:10 10° SW 08:55:27 41° SSE 08:59:40 10° ENE daylight
06 Oct - 10:32:58 10° WSW 10:36:46 28° NW 10:40:31 10° N daylight
07 Oct - 00:35:43 10° N 00:39:16 22° NE 00:42:48 10° E night (unlit)
07 Oct - 02:15:53 10° WNW 02:20:28 55° SW 02:25:03 10° SE visible
07 Oct - 03:59:58 10° SW 04:02:44 15° SSW 04:05:30 10° SSE visible
07 Oct - 07:25:40 10° SSW 07:28:52 18° SSE 07:32:02 10° ESE daylight
07 Oct - 09:06:21 10° SW 09:10:54 82° SE 09:15:19 10° NE daylight
07 Oct - 10:49:58 10° WNW 10:51:50 12° NW 10:53:40 10° NNW daylight
08 Oct - 00:49:57 10° NNW 00:54:24 45° NE 00:58:52 10° ESE night (unlit)
08 Oct - 02:31:51 10° W 02:36:00 31° SSW 02:40:08 10° SSE visible
08 Oct - 04:16:59 10° SSW 04:18:39 12° SSW 04:20:20 10° S visible
08 Oct - 06:00:24 10° S 06:01:52 11° S 06:03:20 10° SSE daylight
08 Oct - 07:40:36 10° SSW 07:44:34 29° SSE 07:48:28 10° E daylight
08 Oct - 09:21:51 10° WSW 09:26:10 46° NW 09:30:24 10° NNE daylight
08 Oct - 23:26:35 10° NNE 23:28:41 13° NE 23:30:47 10° E night (unlit)
09 Oct - 01:04:58 10° NW 01:09:41 86° SW 01:14:22 10° SE night (unlit)
09 Oct - 02:48:15 10° WSW 02:51:40 20° SSW 02:55:05 10° SSE visible
09 Oct - 04:34:12 10° S 04:34:39 10° S 04:35:06 10° S visible
09 Oct - 06:15:12 10° SSW 06:17:48 15° SSE 06:20:23 10° SE daylight
09 Oct - 07:55:40 10° SW 08:00:07 52° SE 08:04:27 10° ENE daylight
09 Oct - 09:37:53 10° W 09:41:17 21° NW 09:44:39 10° N daylight
09 Oct - 23:39:46 10° N 23:43:44 28° NE 23:47:44 10° ESE night (unlit)
10 Oct - 01:20:36 10° WNW 01:25:05 44° SW 01:29:34 10° SE visible
10 Oct - 03:05:02 10° SW 03:07:30 14° SSW 03:09:57 10° SSE visible
10 Oct - 04:49:56 10° S 04:50:40 10° S 04:51:26 10° SSE visible
10 Oct - 06:30:03 10° SSW 06:33:36 21° SSE 06:37:04 10° ESE daylight
10 Oct - 08:10:56 10° SW 08:15:28 78° NW 08:19:54 10° NE daylight
10 Oct - 23:54:18 10° NW 23:58:54 59° NE 00:03:31 10° ESE night (unlit)
11 Oct - 01:36:42 10° W 01:40:38 26° SSW 01:44:35 10° SSE visible
11 Oct - 03:22:04 10° SSW 03:23:26 11° S 03:24:47 10° S visible
11 Oct - 05:04:42 10° SSW 05:06:39 12° SSE 05:08:35 10° SE visible
11 Oct - 06:45:01 10° SW 06:49:13 35° SSE 06:53:21 10° E daylight
11 Oct - 08:26:33 10° WSW 08:30:41 35° NW 08:34:44 10° NNE daylight
11 Oct - 22:30:05 10° N 22:33:07 17° NE 22:36:09 10° E night (unlit)
12 Oct - 00:09:32 10° WNW 00:14:13 68° SW 00:18:53 10° SE night (unlit)
12 Oct - 01:53:12 10° WSW 01:56:22 17° SSW 01:59:30 10° SSE visible
12 Oct - 03:39:00 10° S 03:39:26 10° S 03:39:52 10° S visible
12 Oct - 05:19:32 10° SSW 05:22:31 17° SSE 05:25:28 10° ESE daylight
12 Oct - 07:00:08 10° SW 07:04:42 66° SE 07:09:08 10° ENE daylight
12 Oct - 08:42:55 10° W 08:45:44 16° NW 08:48:31 10° NNW daylight
12 Oct - 22:43:54 10° NNW 22:48:12 36° NE 22:52:29 10° ESE night (unlit)
